Regional Weather Roundup
Issued by NWS New Orleans/Baton Rouge, LA

Home | Current Version | Previous Version | Text Only | Print | Product List | Glossary On
Versions: 1 2 3 4 5 6 7 8 9 10 11 12 13 14 15 16 17 18 19 20 21 22 23 24 25 26 27 28 29 30 31 32 33 34 35 36 37 38 39 40 41 42 43 44 45 46 47 48 49 50
000
ASUS44 KLIX 191415
RWRLIX
NEW ORLEANS REGIONAL WEATHER ROUNDUP
NATIONAL WEATHER SERVICE NEW ORLEANS LA
900 AM CDT SUN MAY 19 2019

NOTE: "FAIR" INDICATES FEW OR NO CLOUDS BELOW 12,000 FEET WITH NO
      SIGNIFICANT WEATHER AND/OR OBSTRUCTIONS TO VISIBILITY.
      SKY/WX - SKY CONDITION AND SIGNIFICANT WEATHER.
      TMP - AIR TEMPERATURE.     DP    - DEWPOINT TEMPERATURE.
      RH  - RELATIVE HUMIDITY.   PRES  - PRESSURE.
      HI  - HEAT INDEX.          WCI   - WIND CHILL INDEX.

*  THESE STATIONS ARE NOT NWS OR FAA STATIONS AND ARE NOT UNDER
   NWS QUALITY CONTROL.

LAZ038-040-048-061>063-065>067-069-191500-
SOUTHEAST LOUISIANA

CITY           SKY/WX    TMP DP  RH WIND       PRES   REMARKS
N.O. INTL ARPT CLOUDY    80  74  81 SE5       29.97R THUNDER
N.O. LAKEFRONT PTSUNNY   78  74  87 SE8       29.98R
N.O. DOWNTOWN* CLOUDY    79  74  84 CALM      29.99R
RESERVE*       PTSUNNY   78  75  88 CALM      29.98R
SLIDELL        CLOUDY    79  73  82 S7        29.98R
BATON ROUGE    RAIN      69  67  93 CALM      29.96F FOG
BOOTHVILLE     FAIR      79  73  82 SE6       29.98R
BELLE CHASSE   CLOUDY    79  77  94 SE7       29.97R
BOGALUSA*      NOT AVBL
GALLIANO*      PTSUNNY   80  73  80 SE6       29.96R
NEW ROADS*     NOT AVBL
GONZALES*      TSTM      76  71  86 NW24G32   30.01R
HAMMOND*       CLOUDY    77  73  88 S7        29.97R
HOUMA*         PTSUNNY   79  75  89 S9G16     29.94R
PORT FOURCHON* MOSUNNY   81  77  89 S9        29.97R FOG

$$

MSZ070-080>082-191500-
SOUTHERN MISSISSIPPI

CITY           SKY/WX    TMP DP  RH WIND       PRES   REMARKS
MCCOMB         TSTM      67  64  90 W12       30.03R VSB 3/4
GULFPORT       FAIR      79  71  76 S10       29.97S
BILOXI         FAIR      79  71  76 S14       29.96F
PASCAGOULA     FAIR      81  70  69 SE12      29.98S
STENNIS ARPT*  PTSUNNY   77  73  88 S6        29.98R

$$

COASTAL OBSERVATIONS
LAKE AND NEARSHORE STATIONS

STATION/POSITION TIME  SKY/WX   TEMP    WIND        PRES    WAVE
                                AIR SEA DIR/SP/G            HT/PER
                 (UTC)          (F)     (DEG/KT/KT) (MB)    (FT/S)
WAVELAND YACHT   1342            79 79  170/ 14/ 17 1015.0
GRAND ISLE       1348            79 81  160/  5/ 11 1014.5
SOUTHWEST PASS   1342            79 70              1015.2
NEW CANAL        1342            78 79  150/  4/  8 1014.2
SHELL BEACH      1348            78 83  150/  9/ 13 1015.6

OFFSHORE STATIONS

STATION/POSITION TIME  SKY/WX   TEMP    WIND        PRES    WAVE
                                AIR SEA DIR/SP/G            HT/PER
                 (UTC)          (F)     (DEG/KT/KT) (MB)    (FT/S)
64 S DAUPHIN ISL 1350                   120/  8/ 12 1015.7    4/ 7

$$




USA.gov is the U.S. government's official web portal to all federal, state and local government web resources and services.